Погода в Аршань-Зельмене

Россия / Республика Калмыкия     47°36′34″N   44°36′58″E
темп.,
°C
ветер,
м/с
пор.,
м/с
влажн.,
%
обл.,
%
осадки,
мм/ч
давл.,
гПа
погр.,
м
13 апреля, вт
вт1300:00+13в51555100 0.0 1024341
03:00+11в4751100 0.0 1024133
06:00+10вюв475198 0.0 1024149
09:00+16вюв68480 0.0 1024474
12:00+21вюв710325 0.0 10241352
15:00+23вюв9112019 0.0 10222604
18:00+19в61229100 0.0 1021272
21:00+14вюв51331100 0.0 1022256
14 апреля, ср
ср1400:00+12вюв4640100 0.0 102193
03:00+10всв454299 0.0 102068
06:00+9всв495091 0.0 1018162
09:00+16вюв573897 0.0 1018428
12:00+21вюв6927100 0.0 10161217
15:00+22ююв7924100 0.0 10152316
18:00+17ю364697 0.0 1016157
21:00+16ююв344296 0.0 101685
15 апреля, чт
чт1500:00+13юв336296 0.0 101633
03:00+11зюз3368100 0.0 101628
06:00+11з3368100 0.0 101657
09:00+16сз4452100 0.0 1016424
12:00+19зсз3342100 0.0 10151106
15:00+20зсз4441100 0.0 10151641
18:00+18зсз465198 0.0 1015225
21:00+15зсз475890 0.0 1016126
16 апреля, пт
пт1600:00+13зсз596026 0.0 1015150
03:00+11зсз59705 0.0 1016162
06:00+11зсз48745 0.0 1017152
09:00+17сз565298 0.0 1017593
12:00+20сз5537100 0.0 10171582
15:00+20сз4433100 0.0 10172044
18:00+19с344311 0.0 101781
21:00+14с335033 0.0 101817
17 апреля, сб
сб1700:00+13з0154100 0.0 101718
03:00+10сз61185100 0.0 1019296
06:00+11зсз4887100 0.0 1019329
09:00+10з3591100 6.8 1020325
12:00+11зсз6770100 4.4 1022705
15:00+15зсз56483 4.4 10221448
18:00+13сз57550 0.0 1022330
21:00+10с35680 0.0 102377